Content
SEND FEEDBACK

Daily
Averages
Monthly
Summary
United States of America

TAMUNING, GUAM


Home > North America > United States > Guam
Elevation: 250 feet     Latitude: 13 29N     Longitude: 144 47E

WEATHER
 
SELECT A DAY
Number of Records: 341,631;   Date Range: 1/1/95 - 7/20/14
 
SHARE

PRINT THIS DATA

[ ← Previous Day ]
WEATHER ALMANAC - JULY 18, 2013
[ Next Day → ]
[ °C ]   °F
Weather ElementAverageHighLow
Temperature82.5 °F86.2 °F (10:55 am)78.6 °F (1:55 am)
Dewpoint79.7 °F82.4 °F (10:01 am)70.2 °F (3:55 am)
Humidity91.2 %100 % (8:13 pm)73 % (3:55 am)
Barometer29.78 in29.82 in (9:55 pm)29.75 in (3:23 am)
Wind Speed8.7 mph13.8 mph (2:55 pm)
Weather ElementAverage
Visibility10 mi
Wind DirectionENE (82.4 °)

Weather ElementTotal
Precipitation0.01 in
Cooling Degree Days17.4 (Base 65)
Growing Degree Days32.4 (Base 50)
Averaged from 54 records on July 18, 2013
WEATHER CONDITIONS BREAKOUT
WIND DIRECTION BREAKOUT
WEATHER BY HOUR - JULY 18, 2013
[ °C ]   °F
Local TimeTemperatureDewpointHumidityBarometerVisibilityWind DirectionWind SpeedGust SpeedPrecipitationEventsConditions
1:40 AM80.6 °F78.8 °F94 %29.78 in10.0 miEast (80°)9.2 mphRainLight Rain
1:53 AM78.8 °F77.0 °F94 %29.78 in10.0 miEast (80°)6.9 mphScattered Clouds
1:55 AM78.6 °F76.8 °F94 %29.78 in10.0 miEast (80°)6.9 mph0.00 inScattered Clouds
2:55 AM79.3 °F77.9 °F95 %29.76 in10.0 miNE (50°)6.9 mphScattered Clouds
2:56 AM78.8 °F77.0 °F94 %29.76 in10.0 miNE (50°)6.9 mphMostly Cloudy
3:03 AM80.6 °F77.0 °F89 %29.76 in10.0 miENE (60°)8.1 mphMostly Cloudy
3:07 AM78.8 °F77.0 °F94 %29.76 in10.0 miENE (60°)9.2 mphMostly Cloudy
3:23 AM78.8 °F77.0 °F94 %29.75 in10.0 miEast (90°)8.1 mphScattered Clouds
3:55 AM79.5 °F70.2 °F73 %29.75 in10.0 miEast (90°)6.9 mphPartly Cloudy
4:55 AM79.7 °F76.1 °F89 %29.75 in10.0 miEast (100°)5.8 mphPartly Cloudy
5:55 AM79.7 °F77.7 °F94 %29.76 in10.0 miEast (90°)6.9 mphScattered Clouds
6:24 AM80.6 °F77.0 °F89 %29.77 in10.0 miESE (110°)6.9 mphMostly Cloudy
6:32 AM80.6 °F78.8 °F94 %29.77 in10.0 miEast (90°)9.2 mphScattered Clouds
6:55 AM80.6 °F77.4 °F90 %29.78 in10.0 miEast (90°)9.2 mphPartly Cloudy
7:55 AM83.3 °F79.3 °F88 %29.79 in10.0 miEast (90°)10.4 mphClear
8:43 AM84.2 °F80.6 °F89 %29.80 in10.0 miEast (100°)8.1 mphMostly Cloudy
8:49 AM84.2 °F80.6 °F89 %29.80 in10.0 miEast (80°)10.4 mphMostly Cloudy
8:55 AM84.7 °F80.4 °F87 %29.81 in10.0 miEast (100°)9.2 mphScattered Clouds
9:00 AM84.2 °F80.6 °F89 %29.81 in10.0 miEast (100°)9.2 mphMostly Cloudy
9:06 AM84.2 °F80.6 °F89 %29.81 in10.0 miEast (90°)11.5 mphMostly Cloudy
9:54 AM86.0 °F80.6 °F84 %29.81 in10.0 miEast (90°)10.4 mphMostly Cloudy
9:55 AM85.5 °F81.3 °F87 %29.81 in10.0 miEast (100°)9.2 mphMostly Cloudy
10:01 AM86.0 °F82.4 °F89 %29.81 in10.0 miENE (70°)10.4 mphScattered Clouds
10:55 AM86.2 °F81.7 °F86 %29.80 in10.0 miESE (110°)6.9 mphScattered Clouds
11:18 AM86.0 °F82.4 °F89 %29.80 in10.0 miESE (110°)8.1 mphMostly Cloudy
11:55 AM86.0 °F82.2 °F88 %29.80 in10.0 miENE (70°)11.5 mphMostly Cloudy
11:56 AM86.0 °F82.4 °F89 %29.80 in10.0 miEast (80°)12.7 mphScattered Clouds
11:57 AM86.0 °F82.4 °F89 %29.80 in10.0 miEast (80°)12.7 mphMostly Cloudy
12:01 PM86.0 °F82.4 °F89 %29.80 in10.0 miEast (100°)9.2 mphScattered Clouds
12:19 PM84.2 °F82.4 °F94 %29.79 in10.0 miEast (90°)9.2 mphMostly Cloudy
12:21 PM84.2 °F82.4 °F94 %29.79 in10.0 miEast (80°)11.5 mphMostly Cloudy
12:55 PM85.6 °F81.7 °F88 %29.78 in10.0 miENE (60°)10.4 mphMostly Cloudy
1:02 PM86.0 °F82.4 °F89 %29.78 in10.0 miEast (100°)9.2 mphMostly Cloudy
1:40 PM84.2 °F80.6 °F89 %29.77 in10.0 miESE (110°)6.9 mphMostly Cloudy
1:45 PM84.2 °F80.6 °F89 %29.77 in10.0 miEast (100°)8.1 mphMostly Cloudy
1:47 PM84.2 °F80.6 °F89 %29.77 in10.0 miEast (100°)8.1 mphMostly Cloudy
1:55 PM84.7 °F81.7 °F90 %29.76 in10.0 miEast (100°)9.2 mphScattered Clouds
1:57 PM84.2 °F82.4 °F94 %29.76 in10.0 miEast (90°)8.1 mphMostly Cloudy
2:20 PM82.4 °F80.6 °F94 %29.76 in10.0 miEast (80°)11.5 mphMostly Cloudy
2:31 PM84.2 °F80.6 °F89 %29.76 in10.0 miENE (70°)10.4 mphMostly Cloudy
2:47 PM84.2 °F82.4 °F94 %29.76 in10.0 miEast (80°)11.5 mphRainLight Rain
2:55 PM83.1 °F80.6 °F92 %29.76 in10.0 miEast (100°)13.8 mph0.00 inRainLight Rain
3:17 PM80.6 °F78.8 °F94 %29.76 in10.0 miEast (80°)9.2 mphMostly Cloudy
3:55 PM81.3 °F80.4 °F97 %29.75 in10.0 miENE (70°)5.8 mph0.01 inClear
4:55 PM81.9 °F80.1 °F94 %29.75 in10.0 miNE (50°)6.9 mphClear
5:55 PM81.7 °F79.0 °F91 %29.77 in10.0 miENE (60°)6.9 mphClear
6:55 PM81.0 °F78.8 °F93 %29.78 in10.0 miNE (50°)5.8 mphClear
7:55 PM80.8 °F79.9 °F97 %29.79 in10.0 miNE (50°)8.1 mphPartly Cloudy
8:13 PM80.6 °F80.6 °F100 %29.79 in10.0 miEast (80°)6.9 mphRainLight Rain
8:25 PM78.8 °F78.8 °F100 %29.79 in10.0 miEast (80°)4.6 mphScattered Clouds
8:55 PM79.7 °F79.0 °F98 %29.81 in10.0 miENE (70°)8.1 mph0.00 inClear
9:55 PM80.6 °F78.6 °F94 %29.82 in10.0 miEast (80°)8.1 mphScattered Clouds
10:55 PM80.2 °F78.1 °F93 %29.81 in10.0 miENE (60°)8.1 mphClear
11:55 PM80.1 °F77.7 °F93 %29.80 in10.0 miENE (70°)8.1 mphScattered Clouds
Hourly data recorded from PGUA, located miles away from Tamuning, Guam







STORIES FROM OUR PARTNERS